Weather History for Lexington, KY

Change the Weather History Date:

Sunday, March 25, 2012

  Actual Average Record
Temperature  
Mean Temperature 56 °F 48 °F  
Max Temperature 69 °F 59 °F 86 °F (1929)
Min Temperature 43 °F 38 °F 16 °F (1960)
Degree Days  
Heating Degree Days 9 17  
Month to date heating degree days 249 512  
Since 1 July heating degree days 3415 4083  
Cooling Degree Days 0 0  
Month to date cooling degree days 31 0  
Year to date cooling degree days 31 0  
Growing Degree Days 7 (Base 50)    
Moisture  
Dew Point 51 °F    
Average Humidity 76    
Maximum Humidity 93    
Minimum Humidity 59    
Precipitation  
Precipitation 0.00 in 0.14 in 1.79 in (1913)
Month to date precipitation 3.26 3.27  
Year to date precipitation 9.89 9.67  
Snow  
Snow 0.00 in 0.00 in 1.20 in (1951)
Month to date snowfall 5.3 1.2  
Since 1 July snowfall 7.6 12.5  
Snow Depth 0.00 in    
Sea Level Pressure  
Sea Level Pressure 29.94 in    
Wind  
Wind Speed 6 mph (NW)    
Max Wind Speed 14 mph    
Max Gust Speed 21 mph    
Visibility 9 miles    
Events      
T = Trace of Precipitation, MM = Missing Value Source: NWS Daily Summary

Daily Weather History Graph

Daily Weather History Graph

Search for Another Location

Airport:

Trip Planner

Search our weather history database for the weather conditions in past years. The results will help you decide how hot, cold, wet, or windy it might be!

Date:

Astronomy

Mar. 25, 2012 Rise Set
Actual Time 7:33 AM EDT 7:55 PM EDT
Civil Twilight 7:07 AM EDT 8:21 PM EDT
Nautical Twilight 6:36 AM EDT 8:52 PM EDT
Astronomical Twilight 6:04 AM EDT 9:24 PM EDT
Moon 8:48 AM EDT (3/25) 11:06 PM EDT (3/25)
Length of Visible Light 13h 14m
Length of Day
12h 21m
Waxing Crescent, 8% of the Moon is Illuminated
Mar 25
Waxing Crescent
Mar 30
First Quarter
Apr 6
Full
Apr 13
Last Quarter
Apr 21
New

Hourly Weather History & Observations

Time (EDT) Temp. Windchill Dew Point Humidity Pressure Visibility Wind Dir Wind Speed Gust Speed Precip Events Conditions
12:54 AM 48.0 °F - 44.1 °F 86% 29.88 in 10.0 mi WSW 3.5 mph - N/A   Clear
1:54 AM 48.0 °F - 45.0 °F 89% 29.88 in 10.0 mi West 3.5 mph - N/A   Clear
2:54 AM 46.9 °F - 44.1 °F 90% 29.88 in 10.0 mi WSW 4.6 mph - N/A   Clear
3:54 AM 46.9 °F - 44.1 °F 90% 29.87 in 10.0 mi West 3.5 mph - N/A   Clear
4:54 AM 48.0 °F - 44.1 °F 86% 29.89 in 10.0 mi NNW 3.5 mph - N/A   Clear
5:54 AM 46.0 °F - 43.0 °F 89% 29.88 in 10.0 mi Calm Calm - N/A   Clear
6:54 AM 48.0 °F - 44.1 °F 86% 29.90 in 10.0 mi Calm Calm - N/A   Partly Cloudy
7:54 AM 46.0 °F 43.9 °F 43.0 °F 89% 29.91 in 10.0 mi WNW 4.6 mph - N/A   Clear
8:54 AM 51.1 °F - 46.9 °F 86% 29.92 in 10.0 mi NNW 4.6 mph - N/A   Clear
9:14 AM 51.8 °F - 50.0 °F 94% 29.94 in 5.0 mi NNW 10.4 mph - N/A   Scattered Clouds
9:54 AM 54.0 °F - 51.1 °F 90% 29.94 in 6.0 mi North 10.4 mph - N/A   Partly Cloudy
10:54 AM 57.0 °F - 54.0 °F 89% 29.94 in 6.0 mi NW 9.2 mph - N/A   Scattered Clouds
11:18 AM 59.0 °F - 53.6 °F 82% 29.95 in 7.0 mi NW 8.1 mph - N/A   Mostly Cloudy
11:27 AM 60.8 °F - 55.4 °F 82% 29.95 in 8.0 mi NNW 10.4 mph - N/A   Scattered Clouds
11:37 AM 59.0 °F - 55.4 °F 88% 29.95 in 7.0 mi NW 9.2 mph - N/A   Mostly Cloudy
11:54 AM 59.0 °F - 55.0 °F 87% 29.95 in 6.0 mi NW 10.4 mph - N/A   Overcast
12:12 PM 62.6 °F - 55.4 °F 77% 29.95 in 9.0 mi NW 8.1 mph - N/A   Scattered Clouds
12:54 PM 64.0 °F - 55.9 °F 75% 29.94 in 10.0 mi NNW 6.9 mph - N/A   Scattered Clouds
1:32 PM 62.6 °F - 53.6 °F 72% 29.96 in 10.0 mi NNW 13.8 mph - N/A   Mostly Cloudy
1:35 PM 64.4 °F - 53.6 °F 68% 29.96 in 10.0 mi NNW 12.7 mph - N/A   Mostly Cloudy
1:50 PM 62.6 °F - 53.6 °F 72% 29.96 in 10.0 mi NNW 10.4 mph - N/A   Mostly Cloudy
1:54 PM 64.9 °F - 55.0 °F 70% 29.95 in 10.0 mi North 11.5 mph - N/A   Mostly Cloudy
2:03 PM 66.2 °F - 55.4 °F 68% 29.96 in 10.0 mi NNW 10.4 mph - N/A   Scattered Clouds
2:54 PM 66.9 °F - 55.0 °F 66% 29.94 in 10.0 mi NW 9.2 mph - N/A   Mostly Cloudy
3:54 PM 66.9 °F - 55.0 °F 66% 29.93 in 10.0 mi NW 4.6 mph - N/A   Overcast
4:54 PM 66.9 °F - 53.1 °F 61% 29.92 in 10.0 mi NNW 9.2 mph - N/A   Mostly Cloudy
5:54 PM 68.0 °F - 54.0 °F 61% 29.94 in 10.0 mi NNW 11.5 mph - N/A   Scattered Clouds
6:54 PM 64.9 °F - 54.0 °F 68% 29.95 in 10.0 mi NNW 12.7 mph - N/A   Overcast
7:54 PM 63.0 °F - 54.0 °F 72% 29.97 in 10.0 mi NNW 8.1 mph - N/A   Overcast
8:54 PM 60.1 °F - 54.0 °F 80% 29.98 in 10.0 mi North 5.8 mph - N/A   Mostly Cloudy
9:54 PM 61.0 °F - 54.0 °F 78% 30.00 in 10.0 mi North 4.6 mph - N/A   Overcast
10:54 PM 60.1 °F - 54.0 °F 80% 30.02 in 10.0 mi NNW 3.5 mph - N/A   Overcast
11:54 PM 57.9 °F - 54.0 °F 87% 30.01 in 10.0 mi NNW 3.5 mph - N/A   Clear